Theta_e
294 287 285 285 288 290 291 291 291 292 290 289 288 287 286 285 286 289 289 294 292 290 287 290 289 286 289 291 294 297 296 294 293 291 293 294 293 293 292 292 292 291 292 293 294 294 294 294 294 295 295 295 295 295 295 296 296 296 297 297 297 298 299 301 305 306 307 307 305 307 307 305 306 306 307 309 308 309 307 308 309 310 310 310 310 309
294 287 286 289 291 292 292 291 290 289 288 288 286 284 285 284 286 289 291 291 292 290 285 285 288 289 291 293 295 296 294 293 292 291 293 292 293 292 292 291 291 291 292 292 292 293 293 293 294 294 294 294 293 293 294 294 295 295 296 296 296 297 298 298 300 303 304 302 302 304 302 303 303 307 307 307 306 306 307 306 305 304 305 306 307 307
287 286 290 292 293 292 291 290 289 289 288 287 286 285 284 286 287 290 290 290 290 292 288 285 288 289 291 293 295 292 292 292 293 292 292 292 291 291 291 291 290 290 290 291 291 291 292 292 293 293 293 293 293 293 293 294 294 294 294 295 295 296 296 297 297 299 300 301 301 302 300 301 300 300 300 302 301 303 304 304 303 304 304 305 306 305
284 285 291 294 292 290 290 290 289 288 288 286 286 284 285 287 286 283 286 288 290 290 288 287 286 287 289 292 291 293 292 292 292 292 291 292 291 290 290 290 290 289 289 289 289 290 290 291 291 292 292 292 293 292 293 293 293 294 294 294 294 295 295 295 296 297 296 298 298 299 299 300 300 298 298 299 299 299 300 302 300 301 299 300 300 300
289 291 294 293 290 290 290 290 288 287 285 286 288 287 286 286 286 287 287 288 288 288 287 286 286 284 287 291 289 291 291 291 291 291 291 291 291 291 290 290 290 289 289 288 289 289 289 289 290 290 291 292 292 292 292 292 292 293 293 293 294 294 294 294 295 296 296 297 297 297 298 297 296 297 297 297 297 297 296 298 299 299 297 298 298 298
289 293 294 291 289 289 289 288 289 288 285 285 286 289 289 288 287 286 287 287 282 283 284 286 279 277 282 285 288 289 289 289 289 289 289 289 290 289 289 288 289 289 289 288 288 288 288 288 289 289 290 290 291 291 292 292 292 292 293 293 293 294 294 294 294 295 295 295 295 295 294 293 293 293 293 293 293 294 295 295 296 298 297 298 296 295
291 294 294 292 290 288 288 288 287 290 285 285 287 288 290 288 287 286 286 285 280 279 286 285 281 275 279 285 287 287 287 287 288 288 288 288 288 288 288 288 288 287 287 288 287 287 287 287 288 288 288 289 290 290 291 292 292 292 292 292 293 293 293 294 293 294 294 293 293 293 292 292 292 291 292 292 292 293 293 294 294 295 296 296 298 298
291 291 290 290 290 288 286 287 288 290 287 284 285 287 287 287 286 285 284 285 282 281 283 285 285 280 277 283 288 287 287 286 286 287 287 287 287 287 287 287 287 287 286 286 286 286 287 287 287 287 288 288 289 289 291 291 292 292 292 292 292 292 292 292 293 293 293 292 292 291 291 291 291 291 290 292 292 292 292 293 292 293 293 294 295 296
291 289 288 288 288 287 288 290 288 291 288 285 287 286 286 287 286 284 285 282 282 282 278 279 283 280 276 282 285 287 285 284 284 285 285 286 286 286 286 286 286 286 286 286 286 286 286 286 286 287 287 288 288 289 289 289 290 291 291 292 292 292 292 292 291 291 291 292 291 291 291 290 291 291 291 291 292 291 292 291 292 292 292 293 293 293
290 293 290 290 288 287 288 287 288 292 288 289 287 286 285 285 284 282 279 283 281 280 275 280 282 278 277 280 282 284 284 283 284 285 285 285 286 286 285 285 286 286 285 286 286 285 286 286 286 286 287 287 287 288 288 288 289 289 290 290 290 290 291 291 291 291 290 291 291 290 290 289 290 290 290 290 290 290 290 290 290 290 291 291 291 292
291 292 293 291 289 289 287 289 288 290 290 288 287 286 284 282 281 280 279 277 278 273 277 281 282 283 276 280 282 283 284 285 285 284 285 285 285 285 285 285 285 285 285 285 285 285 285 285 285 286 286 286 286 287 287 288 288 288 288 289 289 289 290 290 290 290 290 290 290 289 289 289 288 289 289 288 288 289 289 289 289 289 289 290 290 290
288 290 290 289 292 290 289 288 287 286 287 288 285 283 284 282 278 276 273 276 274 271 276 279 282 282 275 277 281 284 286 287 286 284 284 284 284 284 284 285 285 285 284 284 284 284 284 284 285 285 285 285 285 286 286 287 287 287 287 288 288 288 288 288 289 289 289 289 289 289 288 288 288 288 288 287 287 287 287 288 287 288 288 288 289 289
286 288 288 290 292 292 289 287 286 284 284 286 283 281 277 274 273 273 271 273 272 274 278 278 281 280 280 283 283 284 284 285 286 286 284 284 284 284 284 285 285 285 284 284 283 283 284 284 284 284 284 285 285 285 285 286 286 286 286 286 287 286 287 288 287 287 287 287 287 287 287 287 287 287 287 286 286 286 287 287 287 287 287 287 287 287
284 283 288 288 291 291 290 286 283 285 284 283 284 279 274 271 271 267 268 267 269 274 277 280 282 279 279 282 283 283 284 285 286 286 285 285 284 284 284 284 284 284 284 284 284 283 283 284 284 284 284 284 285 285 285 285 285 285 286 286 286 286 286 287 287 287 287 287 287 287 287 287 287 286 286 286 285 285 286 286 285 285 285 286 286 286
277 279 284 288 286 289 291 291 288 281 282 284 283 285 281 274 268 269 267 273 274 275 276 278 277 272 277 281 282 284 283 284 285 285 284 284 284 284 283 284 284 283 284 283 283 283 283 284 284 284 285 285 285 285 285 284 284 285 285 285 285 285 286 286 287 287 286 286 286 286 286 287 287 286 286 286 285 284 284 285 284 285 285 285 286 286
282 282 285 288 288 289 289 289 287 284 284 283 282 283 279 280 279 278 272 269 269 273 274 275 276 277 279 283 284 283 284 284 284 284 284 283 284 283 283 284 284 284 283 283 284 284 283 284 283 284 285 285 285 285 285 285 284 285 285 285 285 284 285 286 286 286 286 286 286 286 285 286 286 286 285 285 285 284 285 284 283 283 283 284 285 286
282 280 284 287 287 287 287 288 291 287 281 283 284 280 282 282 284 275 275 277 274 272 275 273 280 281 282 283 282 283 283 282 282 282 282 283 283 282 282 283 283 283 282 282 283 282 283 283 284 284 284 284 285 286 286 285 285 285 284 284 284 284 284 285 285 285 285 285 285 285 285 285 285 285 285 285 284 285 285 284 283 283 282 283 284 285
282 280 283 286 287 288 286 287 287 286 286 284 280 282 283 286 284 280 274 271 272 273 274 276 275 276 279 274 280 281 280 281 281 282 282 283 282 282 283 283 283 283 283 283 283 283 283 283 284 284 285 285 286 286 286 286 286 286 286 285 284 284 284 284 284 284 284 284 284 284 284 284 284 284 284 284 284 285 284 283 283 283 282 282 283 283
284 280 283 285 285 287 285 289 287 287 287 284 282 283 286 278 278 279 273 271 270 268 270 272 277 278 279 280 278 279 280 281 281 281 281 282 283 283 283 283 284 284 283 283 283 284 284 284 284 285 285 285 286 286 286 286 286 286 285 285 285 285 285 285 286 285 285 285 286 286 284 284 284 284 284 284 284 283 282 282 282 282 282 282 282 283
286 281 280 286 286 287 285 284 280 283 287 286 286 285 283 280 275 275 279 273 275 273 275 270 279 277 280 278 281 282 282 282 282 281 282 283 284 285 284 284 284 284 285 286 285 285 284 285 285 285 285 285 286 286 286 286 286 285 285 284 284 284 284 283 284 284 284 284 284 283 281 281 281 281 281 282 283 283 282 282 282 281 282 282 281 281
286 284 275 281 282 285 283 284 282 283 281 284 282 280 282 277 281 279 278 275 276 274 276 277 275 276 280 283 282 284 283 283 283 283 284 285 286 286 285 285 285 285 284 285 285 285 285 285 284 285 285 285 285 284 284 284 284 284 283 283 283 283 282 281 281 282 282 282 281 280 280 279 280 280 280 279 279 280 279 279 280 279 280 281 281 281
280 282 281 277 281 281 279 283 284 283 284 281 282 279 281 278 278 277 277 280 276 280 275 277 276 281 284 287 285 284 284 284 285 285 285 285 285 285 286 287 286 285 286 286 286 285 285 284 284 284 284 283 283 283 283 283 282 282 283 281 281 281 280 280 279 280 280 280 280 279 279 278 278 278 279 279 278 278 277 278 278 278 279 278 279 278
285 282 278 278 280 283 284 289 286 287 286 285 286 284 283 281 280 275 275 277 276 278 280 277 276 275 285 284 284 285 286 286 286 286 286 286 286 286 286 288 286 287 286 286 285 285 284 283 283 282 281 281 280 280 280 280 281 280 280 280 279 279 279 279 279 279 279 279 278 278 278 278 278 277 277 278 277 277 277 277 278 277 278 278 278 279
291 279 279 280 281 281 283 283 285 285 289 286 285 282 284 283 283 282 281 280 276 278 278 277 277 281 285 285 284 285 286 286 287 286 287 287 288 286 285 285 285 285 285 284 284 283 284 283 282 282 281 281 281 281 281 281 281 280 280 280 279 279 279 278 279 279 278 278 278 277 277 277 277 277 277 277 278 277 277 277 277 277 277 278 277 278
282 282 283 277 278 279 278 280 281 285 283 281 280 280 283 282 282 280 278 278 276 280 280 274 272 279 284 284 283 283 285 286 286 286 287 287 286 286 286 285 285 285 284 283 283 283 283 282 282 282 281 281 280 280 280 279 279 279 279 278 279 279 279 279 278 278 278 278 278 277 277 277 277 277 277 277 278 278 278 277 277 277 277 277 277 277
284 281 281 275 275 273 270 267 267 275 281 280 281 281 282 282 280 277 274 277 276 281 282 278 278 284 286 285 284 285 284 284 286 285 284 283 283 284 283 283 282 281 282 282 282 280 281 281 281 280 280 279 279 279 280 279 279 279 279 279 279 279 279 279 278 278 278 277 277 277 276 277 276 277 277 277 277 278 278 278 277 278 278 278 278 278
278 281 282 282 280 278 279 274 279 280 280 278 277 280 280 280 280 279 276 276 276 279 276 277 278 279 280 282 282 284 281 282 281 280 282 282 280 280 280 280 280 280 280 280 280 280 279 279 279 280 279 279 279 279 279 279 279 278 278 278 278 278 278 278 278 278 277 277 277 278 277 277 277 277 277 277 277 277 277 277 278 277 278 278 278 278
277 278 281 280 279 280 280 279 281 282 279 279 278 281 281 280 276 276 277 275 279 275 274 280 279 276 280 283 282 279 278 278 278 278 279 279 280 280 280 280 283 279 279 279 279 278 279 279 278 278 278 278 279 278 279 279 279 278 278 278 278 278 278 280 279 279 279 279 279 278 279 278 278 278 278 278 277 277 277 278 277 277 277 277 277 277
281 279 279 282 280 280 281 281 280 280 280 280 280 280 280 282 275 273 270 279 277 276 276 280 277 276 278 280 280 279 280 280 280 282 282 280 280 279 279 280 280 279 279 278 280 278 278 278 278 278 278 278 278 278 278 278 278 279 278 278 278 278 278 278 278 278 278 278 278 278 278 278 278 278 278 278 278 278 279 279 279 279 279 278 278 279
277 272 277 278 277 276 278 279 279 279 277 278 278 279 280 279 277 277 277 279 278 276 278 278 277 277 280 281 280 282 282 281 279 278 277 279 279 279 279 278 278 277 276 276 277 278 277 277 276 276 276 276 277 277 277 277 278 278 278 279 278 279 279 278 278 278 278 277 277 277 277 277 277 277 277 277 277 278 278 278 278 278 278 278 278 279
284 277 281 274 273 271 272 278 278 276 276 274 276 277 277 277 277 277 278 277 277 275 277 277 276 277 282 281 281 279 277 276 276 276 277 277 277 277 277 276 276 276 276 275 275 275 276 276 277 278 277 278 278 278 278 279 278 277 277 277 277 277 277 277 277 277 276 276 277 277 277 277 277 277 277 277 277 277 277 277 277 277 277 277 277 277
281 274 273 270 269 265 268 273 275 271 273 272 274 275 276 275 273 275 274 277 275 274 276 274 272 275 280 279 277 275 275 276 276 275 275 275 275 276 275 275 275 275 275 275 274 275 276 276 277 276 277 277 277 277 277 277 277 277 277 276 276 276 276 276 275 275 275 275 276 276 276 276 276 276 276 276 275 276 276 276 275 275 275 276 276 276
279 275 273 269 270 266 269 270 272 270 269 270 272 276 276 276 277 277 277 277 278 278 273 270 273 279 279 280 278 276 275 274 274 275 275 275 275 275 275 275 275 275 274 275 275 276 276 276 277 277 276 276 277 277 277 277 276 276 276 276 276 275 275 274 274 274 274 274 274 274 275 274 274 274 273 273 273 273 273 273 273 273 273 273 274 274
278 278 273 273 269 266 268 268 269 268 263 267 275 277 277 275 276 274 275 276 277 278 276 278 278 277 276 277 278 278 275 275 275 275 275 275 275 275 274 274 274 275 276 276 275 275 275 275 276 276 277 277 277 276 276 276 275 276 275 274 274 274 273 273 273 273 273 273 273 273 273 273 271 271 271 271 271 271 271 270 270 271 271 272 272 272
279 279 277 276 272 268 267 269 269 266 267 273 275 276 277 277 277 276 277 277 277 277 277 276 275 272 277 279 280 280 277 275 274 275 275 274 275 276 275 275 276 276 276 276 275 275 275 276 276 276 276 276 276 275 274 274 273 273 273 273 273 273 272 272 272 272 272 272 272 272 271 271 270 269 269 269 269 268 268 268 268 268 269 269 269 269
275 277 274 276 275 272 269 271 264 265 276 277 276 274 274 273 271 273 272 275 275 276 277 276 277 277 277 278 277 275 274 275 275 274 275 274 276 276 275 276 276 276 276 275 276 275 276 277 277 276 276 275 274 273 273 272 272 272 272 272 272 271 271 271 270 271 271 270 271 270 270 268 268 267 266 266 266 265 265 266 266 266 266 267 267 267
279 275 274 274 278 270 272 271 271 274 273 275 274 275 275 274 273 272 267 274 275 274 275 275 276 275 275 274 274 274 274 273 274 274 274 275 276 276 277 277 276 276 276 275 276 276 277 277 276 276 274 273 272 272 272 272 271 271 271 270 270 269 269 269 268 269 269 269 269 268 267 267 265 264 264 264 263 263 263 263 263 264 264 264 264 264
280 277 277 274 269 275 268 268 265 264 265 270 274 275 277 276 277 276 274 269 273 272 274 276 275 273 273 273 274 273 272 273 272 274 275 276 277 277 276 276 276 276 275 275 276 276 276 275 274 274 273 271 271 271 270 270 270 269 268 268 268 267 267 267 267 268 267 267 266 266 265 264 263 262 262 261 261 261 262 262 262 262 263 262 262 262
279 280 276 276 271 272 268 267 266 263 265 270 271 275 276 275 276 271 268 265 269 268 269 271 270 271 273 274 273 272 271 267 270 275 276 276 276 276 277 276 276 275 275 276 277 276 275 274 273 272 271 270 269 270 269 268 267 266 266 266 266 266 266 266 266 266 265 265 265 264 263 262 262 261 261 260 261 260 260 260 261 261 262 261 261 261
275 275 276 273 272 272 270 268 266 269 265 268 264 273 274 271 274 270 260 259 267 268 268 272 273 273 273 273 273 273 272 266 272 276 276 276 277 277 276 276 275 275 275 275 274 275 274 273 271 270 269 268 269 269 267 266 265 264 265 265 266 265 265 265 265 265 264 264 263 262 261 261 260 260 260 260 260 260 260 260 260 260 260 260 260 260
272 270 274 271 273 273 274 270 270 270 272 270 270 272 274 273 272 262 263 267 270 271 272 273 274 274 275 273 274 270 274 277 278 278 275 274 274 275 274 274 275 276 276 274 274 275 272 271 270 269 268 268 268 267 266 265 264 264 264 265 264 263 264 264 264 263 263 262 261 260 260 260 259 259 259 259 259 259 259 259 259 259 259 258 259 259
262 264 267 270 270 271 272 270 270 272 272 272 273 276 275 273 263 265 273 272 273 273 273 274 275 275 275 275 275 276 278 277 277 276 275 274 276 277 276 274 274 273 273 273 273 271 270 268 267 267 267 266 266 265 264 263 262 263 262 262 262 263 264 263 263 262 261 260 260 259 259 258 258 259 258 258 258 258 258 258 259 258 258 258 258 258
268 266 264 269 269 267 267 267 267 263 272 277 275 274 275 267 269 275 274 273 273 274 274 274 275 276 275 275 276 276 277 276 275 276 276 275 275 275 275 274 274 273 272 270 269 269 268 267 266 266 265 265 264 264 264 260 260 260 261 260 262 263 262 262 261 261 260 259 258 258 258 258 257 257 258 257 257 257 257 258 257 257 258 257 257 257
269 260 256 261 269 263 266 265 265 273 275 274 277 271 271 277 276 275 275 273 274 274 274 275 276 276 276 276 276 276 276 276 276 275 274 274 274 275 274 275 273 271 269 268 268 267 265 265 265 265 264 264 263 262 262 260 259 259 260 260 262 262 261 260 259 258 258 257 257 257 257 257 257 257 256 256 257 257 256 256 257 257 257 257 257 256
271 268 267 266 267 266 264 268 272 273 274 277 279 278 278 280 278 274 274 275 275 275 275 276 276 277 277 276 276 276 276 276 276 277 276 276 275 274 273 273 271 270 268 267 266 265 264 264 263 263 262 263 261 261 259 259 258 258 258 260 261 260 259 259 257 257 256 256 256 256 256 256 256 256 256 256 256 256 256 256 256 256 256 256 256 256
272 273 270 271 269 272 272 273 274 273 273 275 278 279 278 276 275 274 275 276 275 277 276 276 277 277 276 276 276 275 276 277 277 276 276 275 274 272 270 268 268 267 266 265 264 264 262 261 260 259 259 260 260 260 260 258 258 256 259 260 259 259 258 257 256 255 255 255 256 256 256 256 256 256 256 256 256 256 256 256 256 256 256 255 255 255
272 273 271 269 268 268 266 272 272 275 274 275 278 278 276 276 277 276 275 276 277 277 276 276 277 277 277 275 275 276 277 277 276 276 276 273 272 270 269 268 267 266 264 262 263 261 260 258 259 258 258 257 260 259 259 257 257 258 258 257 258 258 257 255 255 255 255 255 256 256 256 255 256 256 257 256 256 256 256 256 256 255 255 255 255 254
271 274 270 272 270 270 268 272 274 276 277 276 276 276 277 278 277 277 277 277 278 278 277 277 275 274 274 274 276 276 276 277 275 275 274 272 271 269 269 268 265 264 263 262 261 259 258 258 258 257 257 257 258 258 257 256 256 257 256 257 257 256 255 254 255 255 255 255 255 255 256 255 257 257 256 256 256 256 256 256 256 255 255 255 255 255
273 273 263 269 271 273 274 274 275 275 275 276 276 275 277 277 277 277 277 277 276 276 276 275 275 276 275 276 276 276 275 275 275 275 273 270 269 268 267 265 265 264 262 261 260 258 258 257 256 256 256 256 257 257 255 255 256 256 256 257 256 255 253 254 255 255 254 255 255 255 256 256 256 256 256 256 256 256 256 256 255 256 256 258 259 258
270 272 273 270 267 266 269 273 276 267 270 276 277 278 278 277 277 277 277 275 274 274 275 275 276 274 274 274 274 274 274 275 272 270 268 267 267 265 264 264 263 262 261 260 258 257 256 256 255 255 255 256 256 255 254 255 255 255 256 255 255 254 253 254 254 254 254 255 255 255 256 256 256 256 256 255 255 255 256 259 263 262 260 260 264 267
274 275 274 271 271 270 275 277 278 277 276 277 278 277 276 277 276 276 276 276 277 276 276 276 275 275 272 270 268 271 272 272 267 266 266 266 265 264 264 263 262 261 260 258 257 255 255 256 256 255 254 255 255 254 254 255 255 255 255 256 256 255 254 254 254 255 255 255 255 256 256 256 255 256 255 255 255 255 255 255 257 263 265 265 265 267
Wind_Speed
2 4 6 7 9 10 10 13 13 10 4 3 1 1 6 6 7 6 5 9 1 2 5 8 5 3 7 9 12 16 6 5 6 4 8 7 7 7 7 8 8 9 7 4 6 8 9 10 9 8 9 9 12 13 13 14 13 13 11 13 13 9 10 9 8 8 7 7 6 6 6 5 5 4 4 6 6 6 5 5 4 2 2 2 3 3
2 5 6 10 11 12 13 10 5 3 2 5 5 4 8 4 11 5 5 3 1 2 3 1 1 6 8 9 15 9 8 7 7 4 9 8 8 7 7 7 8 6 4 6 10 11 10 10 10 10 10 12 15 12 13 13 11 11 13 13 11 11 11 10 7 6 7 5 3 5 3 5 5 7 7 6 6 5 5 5 4 3 2 2 1 1
3 7 10 15 14 5 3 1 5 7 6 3 5 5 3 8 4 8 8 3 2 0 7 1 2 7 10 12 10 9 7 7 9 8 6 9 9 7 6 7 7 7 7 8 9 9 9 10 11 10 10 11 10 10 12 10 13 13 12 11 10 10 10 10 10 9 6 5 5 5 3 3 4 3 3 5 4 5 5 5 5 4 3 3 2 2
3 5 15 15 3 4 5 4 4 3 1 3 3 2 8 3 2 6 4 3 3 1 3 2 5 7 8 7 9 9 7 9 10 13 12 10 10 8 6 5 6 7 8 10 9 9 8 9 9 10 11 10 11 12 13 13 12 10 11 10 10 10 10 10 10 8 7 5 5 6 6 7 8 4 5 7 9 10 9 8 5 6 5 3 3 3
12 9 8 6 4 6 7 7 4 4 6 4 6 7 6 4 5 8 6 2 3 2 1 3 4 6 6 10 4 4 4 9 9 9 11 9 8 5 5 8 7 8 7 7 7 8 8 10 11 10 9 8 12 11 11 11 10 8 10 9 9 9 9 9 10 9 7 9 10 8 8 8 6 8 10 9 9 8 6 7 8 7 4 4 3 3
8 10 1 1 3 4 5 7 8 4 3 3 6 10 9 6 6 4 2 2 6 3 2 2 5 3 4 5 6 3 3 8 4 9 8 7 6 4 7 7 6 7 5 6 6 7 6 8 8 9 10 12 10 11 9 8 9 9 10 11 10 10 10 10 10 9 9 9 9 10 9 9 7 8 8 9 7 8 8 6 4 7 7 6 4 3
8 6 5 6 4 5 5 7 3 7 6 0 6 7 10 6 4 2 1 2 1 2 1 3 0 6 6 3 1 4 5 6 4 7 6 5 5 5 5 5 6 6 6 6 6 6 8 8 9 10 11 10 11 8 6 8 10 11 10 10 10 10 10 10 11 11 8 9 8 8 7 6 6 6 4 3 4 5 6 6 9 7 8 7 7 7
1 2 3 4 5 5 4 6 5 9 6 4 2 3 4 5 3 2 2 2 4 1 5 1 3 6 3 7 5 6 6 5 5 4 5 4 5 5 4 4 5 6 4 5 6 7 7 8 8 10 9 10 9 6 7 10 10 12 11 11 11 10 10 10 10 12 10 9 8 8 7 7 7 6 4 5 5 4 5 8 8 8 8 9 8 8
2 0 3 5 5 6 8 6 3 9 7 4 2 6 3 3 3 4 1 2 1 1 7 3 1 1 4 7 3 3 6 1 3 4 3 4 4 4 4 4 4 5 5 4 6 7 7 8 8 7 10 8 9 9 10 10 9 10 10 11 12 13 12 11 11 11 11 9 8 8 7 8 6 5 6 4 6 7 7 9 8 8 8 8 9 9
3 1 4 7 6 7 4 1 4 10 5 3 3 4 6 5 4 3 2 2 1 1 6 5 4 4 7 5 2 1 0 5 4 4 3 3 4 3 3 3 4 4 4 4 5 5 6 6 6 5 5 9 7 5 6 8 8 8 8 11 13 13 11 10 12 12 12 11 10 10 10 10 8 8 7 7 9 8 7 8 8 7 8 8 8 8
3 3 5 4 5 4 4 1 1 2 1 4 4 2 3 6 2 2 6 3 3 4 7 10 7 6 5 5 5 6 5 4 7 3 3 2 3 3 3 3 2 3 3 3 4 4 4 3 4 4 7 5 5 4 7 8 8 7 9 10 13 10 10 10 11 11 12 11 11 10 10 11 11 10 9 10 11 9 10 9 8 8 7 7 8 8
3 1 0 2 2 3 4 3 4 1 1 3 1 2 4 4 7 3 3 4 1 7 6 3 6 5 5 5 3 3 6 7 13 12 10 8 4 3 3 2 2 2 2 2 3 4 3 4 4 4 7 6 4 7 9 8 8 8 8 9 12 11 10 10 10 11 11 10 11 10 10 11 10 10 9 10 10 9 9 9 9 7 7 8 7 8
3 7 2 3 3 7 1 2 2 4 3 5 4 5 2 4 6 3 2 2 5 6 1 2 6 2 8 6 1 6 7 3 4 10 11 9 6 4 3 3 1 1 2 2 3 3 3 4 4 6 5 6 7 7 8 9 7 7 7 8 10 10 7 8 7 9 8 9 9 8 8 7 7 8 8 7 8 7 7 7 8 9 9 9 10 9
6 2 1 4 3 3 6 5 2 0 1 6 5 5 5 0 1 3 5 1 5 7 4 4 1 2 3 3 5 4 5 2 9 8 7 8 8 6 4 2 1 1 1 1 1 1 2 3 4 4 4 4 5 7 8 8 8 7 8 8 9 8 6 6 8 8 9 10 9 8 9 8 8 9 9 8 8 8 7 7 7 8 7 7 7 7
2 4 5 5 3 1 5 7 8 5 7 8 3 9 8 8 4 4 4 6 6 7 2 3 1 5 1 2 4 2 3 4 5 7 5 4 4 4 3 2 2 1 0 1 1 2 3 3 4 4 4 5 6 7 8 7 7 7 8 8 9 10 9 9 8 8 9 8 7 6 6 6 5 6 6 6 5 6 6 6 6 6 6 7 7 7
6 6 4 2 1 1 7 0 5 5 3 2 3 5 4 6 5 7 5 3 2 3 4 1 4 2 2 0 1 3 4 5 4 5 5 5 3 3 3 3 3 2 2 1 2 3 4 4 4 5 6 6 6 7 7 8 7 8 7 7 8 8 8 8 8 8 6 5 4 4 6 6 5 4 4 4 4 3 3 2 3 3 3 4 5 5
1 3 1 5 3 1 1 1 0 3 5 2 5 4 6 3 4 1 2 0 2 2 8 2 3 1 1 1 3 2 5 3 3 4 4 4 4 2 4 3 3 3 2 2 3 4 4 4 5 5 5 5 6 7 8 8 8 7 8 8 9 9 9 10 9 9 9 9 10 10 9 8 8 8 8 7 7 6 4 4 4 5 4 3 4 5
3 5 1 3 1 1 0 0 2 4 3 6 2 7 1 1 2 3 4 3 0 5 7 1 4 2 1 6 2 2 4 4 4 5 4 3 2 4 5 4 4 3 3 3 3 3 4 4 4 5 5 5 6 6 6 7 6 6 6 6 7 7 8 7 7 7 7 7 7 7 8 7 6 5 5 5 6 6 7 8 7 7 8 8 7 6
4 4 3 0 1 4 3 0 2 1 1 2 2 1 1 3 1 2 4 4 3 5 5 4 3 4 8 6 3 6 9 9 8 4 4 5 5 6 5 5 4 1 1 3 3 3 3 4 4 4 4 4 4 4 3 3 4 4 4 4 4 5 4 4 4 4 4 5 4 4 5 5 5 6 6 6 6 6 7 8 7 7 6 6 7 7
1 3 5 0 2 1 1 4 5 3 2 1 1 1 0 2 2 2 4 3 2 6 4 4 5 8 3 4 13 13 13 11 8 5 7 8 7 6 5 4 3 3 2 2 1 2 3 3 4 4 4 3 4 3 3 3 3 3 3 4 3 3 4 4 4 3 3 3 3 3 3 3 3 3 3 3 3 4 4 4 4 5 6 7 7 7
1 1 4 1 3 1 2 2 6 7 5 1 1 2 0 0 2 3 1 4 4 3 5 8 9 3 2 3 7 11 11 11 11 10 8 7 7 6 4 4 3 3 3 3 3 3 3 3 3 3 3 3 2 2 1 2 1 0 1 2 2 2 2 2 2 2 2 1 1 0 1 2 1 0 1 2 2 1 3 3 3 4 4 5 6 6
1 0 6 1 0 3 5 4 5 4 5 5 7 6 7 4 1 2 9 2 1 5 5 6 13 4 0 0 4 5 8 10 9 10 8 7 6 6 5 3 4 4 4 4 4 4 4 3 3 2 0 0 0 1 1 1 0 0 0 1 1 1 2 2 3 2 3 3 2 2 3 3 3 2 1 1 1 2 3 3 3 3 4 4 5 3
3 2 2 5 6 7 4 1 1 2 2 1 5 4 5 3 4 2 8 5 0 4 1 2 4 4 1 4 1 7 12 13 11 8 7 6 6 6 4 4 4 5 5 5 5 4 4 3 4 3 3 3 3 3 3 2 2 3 4 4 4 4 5 5 5 4 4 4 3 4 3 3 4 3 3 2 3 3 4 4 4 3 3 5 5 5
6 2 1 5 4 3 4 4 3 2 2 1 1 2 2 4 5 7 5 2 3 1 3 1 6 1 1 2 1 7 8 8 7 7 7 6 5 5 4 4 6 4 4 4 5 4 5 4 3 3 3 4 4 4 4 5 5 4 4 5 4 5 6 5 5 5 3 3 3 3 3 4 3 3 4 4 5 4 5 4 4 4 4 5 4 5
2 3 5 1 4 5 4 2 3 2 3 1 2 1 1 2 3 2 3 0 1 4 4 2 10 3 1 0 2 3 4 5 5 6 4 4 3 5 7 6 5 5 4 4 5 5 4 4 4 5 5 5 5 5 4 4 4 5 5 4 5 6 5 4 4 3 4 3 3 4 3 4 4 4 4 5 5 5 6 5 5 4 4 5 5 5
3 4 5 3 9 10 8 4 3 4 6 1 1 1 1 4 3 2 2 2 5 2 7 6 9 3 2 1 0 0 4 6 5 3 2 1 4 5 5 5 5 5 6 6 5 4 5 6 5 5 5 5 5 5 5 5 5 4 5 5 5 5 5 5 4 5 4 4 3 4 4 4 4 4 5 5 5 6 6 6 5 5 5 5 6 6
2 0 4 8 9 12 9 3 3 1 1 2 2 2 5 2 2 2 2 1 5 3 4 6 6 4 4 5 3 6 3 6 5 4 4 4 4 4 4 5 5 6 7 7 7 7 5 3 5 6 5 5 5 5 6 5 5 4 4 5 4 4 3 4 2 3 2 3 2 3 4 4 4 4 4 4 5 5 4 5 5 5 6 5 6 7
2 1 5 4 6 5 1 2 3 2 2 3 4 8 7 6 3 5 7 6 3 2 11 9 6 5 12 12 7 4 4 5 5 5 6 7 6 8 8 5 6 5 4 3 3 4 6 6 4 5 5 5 5 4 5 4 3 2 2 4 5 4 4 5 5 6 6 7 7 6 6 6 6 6 7 6 5 5 5 4 4 5 5 4 5 6
4 4 2 4 6 2 1 3 3 2 4 5 8 9 12 11 3 5 4 7 7 10 15 8 3 6 7 9 5 4 7 7 8 10 8 5 4 4 5 6 5 5 3 2 5 4 5 5 4 4 3 3 2 3 3 3 2 1 2 2 3 4 5 4 4 5 5 5 5 6 6 6 6 5 6 6 6 7 8 8 8 8 7 6 7 7
4 2 1 1 2 2 0 1 2 3 2 2 7 11 11 7 4 5 9 11 10 8 8 7 6 11 10 12 5 7 5 5 4 2 3 5 6 7 6 5 5 5 5 5 6 5 3 3 2 1 1 2 2 2 2 2 3 3 4 4 4 5 5 5 5 4 5 5 4 5 5 5 5 6 6 7 7 7 8 8 8 9 9 9 9 9
4 4 6 1 1 4 4 2 2 2 4 6 10 12 10 5 5 11 10 7 5 6 12 12 11 14 15 4 5 3 1 3 4 4 5 5 5 6 6 5 5 6 6 4 4 3 3 3 2 1 1 1 1 1 2 1 1 2 3 3 3 4 3 4 4 4 4 4 4 4 5 5 6 6 7 6 7 7 8 9 9 9 10 10 10 11
2 4 4 2 1 4 1 1 2 1 3 5 11 16 12 9 10 10 8 8 7 12 9 3 5 12 13 4 0 1 3 5 7 5 5 5 5 5 6 6 5 5 4 3 2 2 2 3 4 4 4 4 2 1 2 2 2 3 3 2 3 2 2 3 3 4 4 4 4 4 5 5 6 6 7 6 7 8 8 8 9 9 9 10 11 11
3 5 3 2 2 4 3 1 1 2 5 10 18 18 13 15 12 6 8 8 10 6 5 7 11 11 9 5 3 3 5 4 5 6 5 4 4 4 5 5 4 3 3 2 2 3 4 4 4 5 4 3 2 2 2 3 3 3 2 3 2 2 3 3 3 3 4 4 4 5 5 5 5 5 5 5 6 7 8 8 9 10 10 11 11 11
4 6 3 3 4 3 1 2 2 2 5 16 1 4 7 7 8 11 10 10 7 8 7 7 9 5 3 4 7 8 7 7 7 6 4 6 5 4 4 3 3 4 3 3 3 4 4 3 3 4 4 3 2 3 3 4 3 2 2 2 3 4 3 4 4 3 4 4 3 4 4 5 4 5 6 6 7 7 8 8 9 9 9 10 11 11
5 3 5 2 3 4 2 4 3 11 17 2 1 1 3 5 5 9 8 7 7 7 6 5 5 5 9 9 11 10 6 1 3 4 2 4 3 4 3 3 5 5 5 4 3 3 4 5 5 4 3 2 3 2 3 3 3 2 3 4 4 4 5 5 5 5 5 5 5 4 4 5 5 6 7 7 7 8 9 9 9 10 9 9 10 11
6 6 3 1 3 3 3 7 6 12 6 4 4 1 1 2 1 2 6 8 9 9 10 9 11 9 7 7 4 1 3 1 0 3 5 4 5 5 4 5 6 6 4 4 4 3 6 7 8 7 5 3 4 3 3 2 2 3 3 3 3 3 3 3 4 5 4 5 4 5 7 6 7 7 7 8 9 9 10 10 9 10 10 10 10 10
8 3 4 6 4 9 7 9 16 7 14 17 10 2 4 4 4 5 6 11 5 5 8 7 9 7 6 3 1 1 1 0 1 4 3 5 6 6 8 6 6 6 6 4 5 5 6 6 6 5 5 4 3 3 3 2 2 1 1 1 2 2 3 3 3 4 4 3 5 6 6 6 7 8 9 8 10 10 10 10 11 10 7 11 11 11
6 11 4 7 5 4 5 8 4 2 9 15 1 0 0 2 2 4 4 9 2 4 5 8 7 3 3 3 4 2 2 1 5 7 4 6 5 7 5 3 4 4 3 3 3 4 5 5 4 4 6 5 4 3 1 1 2 1 1 1 2 3 3 3 4 3 4 5 4 6 5 6 6 9 9 9 9 11 11 9 9 9 8 9 12 12
2 2 4 9 2 3 4 8 9 8 10 4 2 3 1 1 7 4 2 7 4 4 2 4 4 5 7 7 4 4 3 4 7 8 6 7 6 5 6 6 5 4 5 8 10 9 6 5 5 6 5 4 4 2 2 2 2 2 3 3 3 3 3 3 3 4 5 6 5 5 5 5 6 7 8 9 10 9 11 11 10 10 9 8 9 11
6 4 5 7 9 9 7 8 11 5 5 3 3 2 2 2 2 4 1 7 2 3 5 6 6 8 8 6 7 7 9 8 8 10 5 9 10 9 8 7 5 4 4 4 3 6 6 6 6 4 4 3 3 2 2 2 3 3 3 4 3 4 4 4 4 5 5 5 6 4 5 5 6 7 7 10 11 10 10 10 10 10 10 10 8 10
5 1 5 14 13 13 15 8 4 6 4 2 4 4 1 1 3 2 10 8 4 6 7 7 8 9 9 8 8 8 9 11 10 7 3 4 4 5 4 4 5 6 8 6 6 6 6 4 5 5 4 3 3 2 2 3 4 4 3 4 5 5 4 4 5 5 5 6 6 5 6 6 5 9 9 8 10 10 10 9 10 11 11 11 10 10
2 2 4 2 9 10 8 9 10 6 6 6 4 7 4 3 3 10 8 4 8 6 7 10 9 8 8 12 10 10 11 9 5 2 2 5 9 8 8 5 4 4 3 4 6 6 6 5 5 5 4 3 4 3 3 3 4 4 4 4 4 5 4 4 5 5 4 5 6 6 7 7 7 7 8 8 8 10 11 10 10 10 11 10 10 12
9 8 7 9 2 1 1 7 5 10 4 10 7 3 2 5 7 7 3 2 4 5 9 7 9 8 10 10 10 10 8 6 5 7 8 6 7 7 8 7 8 10 10 7 4 3 5 5 4 4 3 3 3 3 3 4 4 4 4 5 6 5 5 5 6 6 5 6 7 7 7 7 8 9 7 8 9 10 12 11 10 11 10 11 12 11
4 5 3 4 6 6 8 9 10 8 3 5 10 8 6 11 7 5 5 4 3 4 5 6 8 9 8 11 10 9 8 8 7 6 5 5 6 5 6 7 5 5 5 4 5 5 5 6 4 3 2 3 2 2 3 4 4 4 5 7 5 5 5 5 5 5 6 6 7 8 8 7 8 8 7 8 10 10 11 12 11 11 9 10 11 10
6 9 8 6 4 9 8 7 5 4 5 9 11 9 8 12 7 8 5 5 4 5 5 5 8 8 9 10 9 8 8 8 9 9 8 9 8 8 8 8 8 8 7 7 6 4 4 5 4 3 2 2 2 1 3 3 4 5 6 6 5 5 6 6 5 6 7 7 8 8 8 7 7 8 8 8 8 10 10 11 10 11 9 9 10 10
4 4 0 2 5 2 3 5 2 1 2 6 9 8 8 5 4 5 6 5 5 6 6 8 8 8 8 8 8 7 8 9 9 9 8 7 5 4 4 5 5 6 6 6 4 4 4 4 3 2 1 1 1 2 2 2 2 5 6 6 6 6 5 6 6 7 8 8 8 8 8 9 9 8 8 8 7 8 9 10 11 10 10 9 9 9
5 2 2 4 3 3 8 2 5 7 4 7 13 10 4 4 5 6 5 6 7 6 6 7 8 8 8 6 9 10 11 10 10 10 8 5 5 6 7 7 7 7 6 4 4 3 3 3 2 2 1 1 1 1 2 2 3 4 5 6 6 6 5 6 7 8 8 9 9 8 8 9 9 9 8 7 7 7 8 9 9 9 10 8 10 9
6 3 3 7 5 5 8 5 9 9 7 4 5 7 8 10 9 7 7 7 7 7 6 8 6 6 5 6 9 9 11 10 8 9 7 6 6 7 7 7 8 7 5 5 4 3 3 3 2 1 1 3 2 2 2 4 4 4 5 5 6 5 5 6 6 8 9 10 8 8 8 9 10 11 9 8 8 9 9 9 8 9 9 10 10 10
4 3 4 5 7 7 4 6 8 4 5 9 8 6 8 9 8 7 8 9 8 7 8 6 6 8 6 10 9 8 8 10 10 10 7 6 6 6 6 7 6 7 5 3 1 2 3 1 2 1 1 3 2 2 3 4 5 4 6 6 5 5 5 7 6 7 8 8 8 9 8 8 8 8 9 10 9 8 9 10 10 10 11 12 10 9
3 11 5 4 6 3 9 13 7 5 8 11 14 16 14 11 8 10 8 6 6 7 8 9 10 5 6 6 6 7 9 10 6 3 4 4 5 6 7 8 6 6 4 3 2 3 3 3 1 1 2 3 2 3 4 6 5 5 5 5 5 5 5 7 7 7 8 7 8 8 8 8 8 8 9 9 9 10 11 15 21 15 12 12 20 25
11 16 9 10 12 12 13 14 12 11 9 10 11 6 6 7 8 9 10 11 10 9 8 8 9 8 5 5 1 5 7 6 4 6 6 5 6 5 5 6 5 4 3 1 2 3 3 1 1 1 3 3 2 3 4 6 5 5 6 5 5 5 6 6 7 7 7 8 7 9 10 9 8 8 8 9 9 9 10 13 17 19 19 20 20 22
Wind_Direction
125 136 172 199 223 215 213 205 211 224 217 252 254 213 254 250 269 269 272 257 107 333 242 248 275 266 276 278 280 281 342 346 354 57 97 99 92 81 75 70 64 55 46 14 26 26 20 19 19 22 30 33 41 34 32 38 34 34 33 38 33 20 28 34 30 33 40 34 22 37 44 51 17 28 41 46 26 30 23 31 42 66 98 121 128 139
98 184 231 223 220 216 218 219 232 278 246 228 252 266 274 243 259 248 260 285 307 165 285 319 324 292 281 287 282 315 359 4 333 97 102 96 81 71 68 66 58 58 43 31 34 25 25 21 20 26 31 30 39 26 33 36 35 37 35 37 28 22 26 27 24 39 51 37 87 99 81 81 34 34 37 30 25 26 47 38 34 32 50 79 94 108
167 194 230 230 227 236 284 178 186 202 233 208 208 231 271 260 265 281 268 320 261 38 265 3 335 286 286 281 319 16 53 28 21 72 82 92 82 70 59 62 60 51 41 38 38 32 29 24 27 33 34 36 39 37 37 30 37 35 36 34 33 29 28 21 16 20 22 22 29 52 53 86 93 65 53 59 25 27 42 46 34 41 42 41 37 46
224 279 245 243 206 206 266 231 192 214 172 200 248 227 239 241 330 302 285 335 335 89 276 347 313 277 288 283 55 31 62 60 52 60 58 53 68 62 53 54 61 58 50 44 32 28 25 32 33 35 36 32 37 35 31 28 31 32 33 33 36 35 33 28 20 21 8 22 32 39 49 40 65 52 17 33 27 18 18 11 19 31 23 41 46 29
205 216 225 239 178 180 225 253 226 224 257 236 214 233 251 248 222 192 252 307 292 360 61 2 312 315 253 258 66 39 39 66 51 60 62 57 58 64 70 61 49 61 49 47 36 28 27 35 34 35 35 34 41 38 34 30 30 32 29 29 37 39 39 37 29 26 24 30 28 17 29 37 26 23 25 27 15 11 6 6 10 351 1 26 41 34
273 261 74 132 157 174 201 259 245 151 240 289 227 207 224 225 231 256 329 19 16 334 330 62 346 304 305 297 157 169 52 58 28 62 54 51 48 43 54 53 48 52 45 53 36 24 23 36 38 39 37 40 39 39 32 33 36 36 33 29 28 33 33 32 34 34 45 48 47 41 40 33 31 34 23 21 2 359 10 347 327 6 13 7 22 39
220 236 166 212 170 182 191 217 246 148 209 280 273 195 217 215 213 157 99 62 294 205 293 59 35 270 318 310 136 154 96 72 54 58 58 50 47 43 48 47 42 38 38 37 41 26 30 22 36 40 39 33 37 29 30 41 41 39 40 37 37 36 29 23 25 28 39 50 51 60 66 67 59 60 26 359 5 12 351 9 21 10 15 18 12 356
169 298 201 203 183 174 187 258 230 164 144 229 248 138 128 124 151 183 105 155 227 265 302 333 158 262 299 275 269 144 102 102 77 67 63 60 57 50 48 45 45 38 30 37 42 40 32 28 28 37 37 38 31 13 32 44 41 40 36 38 39 41 40 32 25 32 30 42 39 47 51 51 47 48 30 11 12 20 17 30 17 16 16 19 25 18
159 192 167 189 196 203 222 221 191 163 150 215 204 145 138 157 170 122 103 161 216 15 287 312 355 307 249 257 322 163 128 156 132 123 110 94 75 55 43 38 43 45 41 37 39 36 35 33 26 21 35 30 29 19 31 38 40 43 42 42 40 39 36 31 33 38 37 42 41 42 37 47 34 32 23 7 23 25 13 34 17 20 11 13 19 28
301 194 217 162 150 216 218 257 177 165 187 264 162 92 66 62 66 111 112 91 346 58 260 235 189 229 274 268 334 347 134 189 179 144 124 116 112 103 83 47 38 31 37 43 52 45 35 28 27 18 36 41 27 14 33 39 38 38 41 45 47 42 36 30 32 35 37 38 40 43 36 39 29 22 19 28 26 20 13 27 18 14 16 7 13 14
254 307 155 122 199 208 146 136 140 227 168 112 91 66 3 41 42 28 63 93 49 259 247 218 200 179 290 271 201 155 214 169 132 111 119 102 90 84 80 83 69 53 29 37 57 60 60 30 27 15 48 43 26 22 41 42 41 39 40 44 50 43 40 36 37 38 39 38 38 42 38 37 32 22 26 26 23 16 20 20 14 14 5 10 11 7
333 341 165 256 97 95 111 85 21 52 62 118 82 114 32 336 5 30 342 39 149 268 260 239 186 159 182 288 308 274 320 164 159 159 159 151 147 139 117 92 71 61 57 30 48 46 38 44 37 37 47 35 25 37 40 39 35 37 38 42 53 43 38 36 34 40 40 40 39 41 39 39 35 32 32 33 27 17 19 15 13 4 14 13 7 10
280 228 248 309 219 142 128 94 329 17 12 83 86 48 102 266 30 312 22 285 209 226 260 126 133 52 248 221 333 338 357 34 98 142 150 147 151 145 131 124 108 98 81 62 55 55 44 56 46 45 42 33 30 36 40 38 37 35 40 41 54 47 39 41 40 51 49 50 47 45 45 47 44 45 44 40 38 23 25 18 18 17 14 5 11 5
278 290 309 259 343 208 133 147 202 173 225 116 151 139 89 229 229 253 265 226 308 289 259 135 185 265 242 297 15 348 345 24 118 127 138 145 148 152 151 147 121 52 71 93 89 89 74 61 64 57 49 44 38 41 44 42 40 33 37 34 48 45 40 37 41 41 44 44 41 37 39 38 35 38 36 33 33 21 24 20 21 21 15 9 9 358
316 341 281 150 220 263 167 193 184 167 160 205 121 150 182 150 150 250 200 233 232 225 284 266 62 231 155 205 335 9 20 60 87 110 119 120 136 149 158 158 172 150 185 212 145 112 84 67 63 63 52 45 43 43 44 42 40 41 36 33 36 35 27 34 35 35 40 40 39 40 43 48 44 47 46 44 39 30 27 15 22 17 12 12 357 359
213 218 256 274 260 123 180 337 118 98 65 176 159 83 86 234 145 229 199 160 234 311 321 207 197 206 140 21 32 53 59 60 75 96 109 117 128 138 144 172 186 194 183 182 123 76 58 57 48 46 44 40 42 43 45 45 41 42 34 36 39 37 27 29 29 30 34 34 42 44 43 40 42 46 54 52 49 45 55 37 45 18 13 3 347 349
65 274 290 319 52 118 189 156 205 133 206 223 101 193 211 170 122 28 341 347 83 42 258 146 307 315 181 107 54 70 82 55 75 99 119 145 170 173 183 201 203 192 173 135 101 88 70 52 45 46 44 39 37 40 40 41 40 40 36 33 31 26 26 25 21 21 18 17 22 17 20 20 22 22 23 17 14 14 14 30 23 22 4 357 7 352
185 252 291 101 217 346 214 131 90 27 146 97 170 240 176 145 104 127 219 323 57 225 268 65 218 291 128 286 119 114 112 172 166 174 170 197 192 188 209 203 205 189 164 140 108 91 89 80 64 50 44 44 44 46 39 38 36 42 45 44 43 34 31 18 22 19 20 17 16 12 12 13 17 15 9 14 11 7 14 14 14 7 9 1 349 354
113 308 291 296 174 296 358 65 10 353 36 145 190 229 126 249 250 315 90 263 266 253 266 288 258 241 188 222 136 218 178 189 188 191 190 206 215 213 216 228 230 216 117 104 102 96 82 81 76 75 70 71 67 64 65 49 49 48 44 48 59 50 42 29 23 20 15 23 17 18 13 14 8 6 7 4 6 9 14 7 2 2 349 347 354 352
19 213 296 323 130 318 12 82 213 242 334 46 31 24 197 104 183 153 201 193 149 274 290 278 275 263 204 206 187 194 188 178 170 179 210 205 207 207 215 216 206 187 176 180 144 117 104 83 87 95 94 84 82 77 56 60 43 45 35 49 36 32 31 22 16 7 6 341 9 347 355 349 351 352 5 355 14 2 3 348 346 345 348 341 337 344
193 106 243 282 303 42 177 168 209 176 173 141 95 292 325 7 224 104 343 142 186 217 219 276 275 274 264 199 179 201 176 173 170 180 202 216 221 223 220 204 192 180 188 186 171 140 126 127 109 114 132 121 102 70 88 90 105 25 25 32 33 47 341 352 314 330 302 288 282 281 271 281 290 310 324 338 346 343 310 313 320 319 314 329 330 339
87 161 221 309 12 200 239 241 183 168 165 164 164 206 173 119 184 239 259 85 136 215 236 245 261 273 257 324 222 187 156 153 186 182 199 215 217 220 223 204 178 186 191 173 166 152 147 142 151 154 296 28 71 215 166 272 355 14 311 269 302 316 281 268 294 284 283 294 283 264 268 259 265 251 263 269 298 298 294 291 295 289 327 317 296 320
150 147 98 241 193 204 210 66 226 156 126 164 145 244 158 155 115 134 247 237 48 261 226 208 303 264 278 284 204 149 153 172 180 183 197 212 211 215 217 196 194 186 173 168 158 166 170 176 188 194 196 203 210 232 241 265 236 233 223 229 228 208 239 211 229 233 233 251 268 272 268 280 283 306 305 303 291 282 281 279 285 296 304 304 308 312
80 100 307 288 297 311 330 319 35 57 146 346 313 66 137 200 191 199 222 193 212 306 230 244 240 188 306 341 81 145 159 168 178 184 190 217 210 207 183 188 182 170 171 160 167 167 183 194 203 202 215 225 224 225 227 217 221 229 226 223 216 214 235 236 231 236 241 260 281 283 308 303 287 292 280 276 268 265 264 259 256 255 248 257 269 281
87 276 131 287 314 317 344 349 2 348 51 128 200 268 160 105 79 132 87 78 142 210 222 183 256 243 239 99 27 87 129 170 184 225 211 234 208 190 188 185 172 163 159 173 180 192 194 199 196 205 205 203 210 217 226 229 227 225 233 222 216 230 240 245 249 241 251 240 259 290 285 279 287 272 270 259 265 260 263 262 256 257 247 259 261 262
164 186 125 182 232 253 258 208 249 245 208 234 227 278 247 140 148 93 251 195 225 209 202 225 249 242 155 101 81 229 159 190 237 261 291 225 203 186 189 175 168 161 181 182 190 177 197 205 206 204 207 216 216 212 216 229 231 235 239 241 223 223 234 232 222 216 218 220 223 253 258 258 264 257 251 254 257 253 253 256 255 257 259 252 258 260
168 143 171 197 211 238 243 197 251 115 49 179 267 176 257 216 197 138 118 155 199 265 256 238 215 254 264 235 206 232 200 203 244 278 268 255 229 216 185 171 171 177 177 183 183 197 203 211 217 213 218 219 221 218 220 217 229 233 234 260 261 241 251 267 241 241 228 232 227 276 288 276 258 249 251 248 246 247 249 250 251 250 256 252 249 259
79 185 241 201 229 238 158 168 211 137 196 248 263 271 254 239 177 155 182 213 178 125 256 236 222 192 248 256 238 198 229 260 266 256 252 244 223 184 183 173 184 182 185 186 212 211 208 218 236 242 242 245 246 255 247 242 259 307 312 307 329 346 340 340 351 346 344 344 337 327 319 330 329 320 313 309 303 291 280 280 280 276 271 264 264 266
146 205 273 129 260 193 165 147 169 152 203 204 224 234 247 252 157 184 211 213 183 215 252 259 146 193 253 250 242 188 206 221 239 252 250 228 173 155 144 156 171 192 219 243 237 221 218 231 241 255 254 241 263 285 305 329 331 348 350 11 355 357 4 344 2 355 352 346 341 330 328 326 325 320 321 318 318 321 321 321 319 318 317 311 303 295
85 264 176 88 236 312 345 147 242 179 243 257 241 239 243 243 215 187 229 233 214 237 257 265 269 256 251 260 279 265 247 223 220 199 113 127 159 157 152 158 172 197 206 212 221 232 240 233 255 259 279 310 321 307 316 340 12 23 29 13 11 22 7 20 19 19 2 356 338 328 326 324 322 323 323 327 327 324 322 323 325 324 322 317 311 308
105 268 101 289 71 285 310 259 255 190 204 255 262 254 245 236 235 227 236 252 242 265 255 257 265 271 266 252 243 278 91 102 105 140 156 156 148 154 158 171 190 202 215 228 240 229 209 216 225 218 121 99 105 133 138 102 33 51 61 43 37 28 360 30 17 14 3 340 331 327 329 331 328 329 332 329 329 328 332 330 328 324 320 317 315 313
78 236 67 85 72 300 311 146 261 17 337 267 274 269 261 248 251 244 233 221 206 228 239 238 244 253 266 264 232 96 153 161 164 160 152 170 172 156 169 191 203 221 233 242 244 252 239 200 183 158 144 137 145 147 128 107 109 74 54 39 32 1 3 28 19 356 341 329 329 332 332 331 328 331 330 337 334 334 331 328 325 322 320 318 318 316
170 136 140 109 172 255 262 145 221 7 3 310 260 251 248 246 236 252 252 228 217 198 194 213 234 236 247 259 236 243 193 193 157 173 172 192 206 188 197 205 210 221 221 217 224 229 225 200 176 159 153 159 156 106 97 107 77 55 38 40 345 19 19 11 0 341 332 328 335 328 331 330 331 329 338 338 336 330 330 328 323 321 322 317 313 313
113 143 170 165 159 239 189 204 58 65 259 245 40 139 179 216 212 216 238 237 223 166 209 205 237 247 242 237 225 235 208 204 183 210 185 169 197 223 236 214 213 205 208 214 216 215 221 186 160 161 157 148 122 108 83 67 68 33 47 38 15 20 3 351 341 343 324 327 327 326 325 332 346 341 336 336 331 329 324 321 314 311 310 307 306 305
165 177 187 173 160 229 141 107 196 231 246 281 355 347 172 194 194 203 235 236 226 218 231 266 266 241 221 212 214 220 208 201 192 163 237 241 196 214 200 202 198 197 206 216 234 233 204 168 161 153 148 135 103 80 79 53 48 18 23 16 14 4 359 347 339 335 331 333 333 339 349 358 348 339 333 332 330 325 317 312 308 307 306 304 301 303
190 166 141 235 129 47 126 193 227 231 264 321 278 163 61 86 73 53 302 261 234 213 202 221 236 228 226 226 244 269 150 178 117 255 236 238 199 194 176 192 202 194 204 214 203 219 167 166 166 164 157 129 102 95 82 60 24 35 9 360 0 355 341 330 328 321 325 332 345 4 359 352 341 336 334 328 324 317 312 310 307 309 312 304 296 293
170 128 164 236 185 218 211 207 237 352 320 288 272 195 172 193 184 167 247 271 224 196 176 207 235 229 231 277 231 170 32 59 331 303 254 218 214 203 178 195 188 206 203 228 194 183 165 154 151 154 124 109 99 84 61 42 26 21 351 341 329 340 321 327 319 314 330 348 1 357 355 352 341 332 326 323 316 312 309 310 310 307 308 300 297 297
174 181 209 195 262 171 168 244 287 279 250 262 189 234 352 199 180 196 181 278 324 248 198 190 221 170 159 172 181 147 61 52 300 272 240 221 208 192 226 220 212 201 185 183 117 130 138 140 127 116 120 118 101 90 66 39 41 359 336 312 317 329 319 322 309 336 4 351 347 351 352 346 335 323 319 316 311 307 304 304 299 297 304 297 301 297
300 206 178 205 212 204 201 211 221 229 242 225 232 215 235 135 141 97 73 286 267 210 218 139 148 182 172 174 189 123 110 208 247 247 233 207 217 213 198 226 220 210 189 175 163 159 155 148 130 121 108 106 100 74 64 35 16 359 345 343 337 333 327 319 337 1 347 339 345 344 339 327 320 311 308 305 301 303 301 303 300 298 298 288 289 288
185 198 163 217 222 218 218 230 233 228 249 275 239 224 214 98 64 63 10 274 261 210 202 170 180 191 206 200 156 160 174 204 236 246 208 192 206 205 192 206 204 188 167 148 125 137 137 130 115 107 106 97 84 84 46 24 12 5 351 345 340 335 326 337 354 342 340 335 330 324 317 311 304 299 296 298 297 296 292 295 298 295 294 289 284 287
176 266 214 212 218 228 227 241 286 276 261 199 177 231 187 145 77 155 222 233 231 195 199 183 194 196 187 182 176 188 223 209 213 225 162 174 170 221 223 218 200 177 161 150 138 126 116 108 112 116 112 94 87 65 32 22 14 358 356 346 340 325 327 340 341 334 331 321 314 309 302 297 291 293 289 284 289 292 291 291 291 294 292 290 289 284
340 83 320 326 225 224 226 236 235 267 232 176 262 157 179 105 217 219 236 191 159 207 201 194 198 211 185 188 196 210 223 223 231 254 172 183 190 195 198 182 116 94 88 113 126 126 120 113 108 102 90 88 73 45 33 33 18 358 351 340 320 314 335 333 330 322 314 310 305 298 293 291 289 283 285 288 287 289 288 286 284 285 289 286 287 288
189 151 209 206 210 37 122 243 253 253 259 154 141 64 236 159 231 208 188 246 194 182 175 208 208 220 187 212 215 215 230 245 231 230 228 211 202 193 189 171 171 164 159 145 114 107 123 116 108 102 99 75 59 31 29 46 18 352 334 320 311 332 331 326 318 312 308 304 297 292 291 290 286 286 285 283 282 282 286 289 288 285 284 286 288 287
208 111 237 250 182 171 193 208 208 222 200 172 146 186 209 208 204 174 145 207 218 177 185 199 220 216 199 203 213 227 236 247 267 254 248 241 220 208 189 189 174 140 117 91 115 122 109 110 116 110 90 79 41 44 51 48 8 336 322 308 323 328 322 315 308 305 302 295 292 293 290 286 284 280 278 279 281 280 282 287 286 285 286 286 287 290
203 188 180 191 205 157 199 216 240 226 197 194 186 205 205 213 188 172 165 174 191 239 200 198 226 224 204 206 222 224 242 239 238 244 233 231 209 191 181 182 170 159 146 133 119 111 99 115 121 112 80 59 47 47 65 40 0 316 305 305 331 316 313 310 308 304 299 295 293 292 288 285 281 281 278 275 276 282 285 284 285 288 287 286 287 286
268 206 29 77 253 238 260 191 245 248 203 209 224 216 212 228 214 169 181 220 239 227 182 196 220 220 213 202 207 244 235 242 247 250 244 237 204 177 133 117 106 103 107 107 106 99 104 106 104 94 84 359 65 59 33 9 334 307 296 313 314 306 304 306 308 304 298 297 295 293 295 295 291 281 275 276 270 269 276 280 287 285 289 285 281 284
256 171 149 202 266 153 258 169 179 217 217 205 210 227 246 252 236 185 194 218 238 232 219 219 214 213 214 193 199 223 238 235 236 244 241 215 182 165 156 144 131 131 136 121 113 113 88 83 66 45 30 11 341 24 345 330 299 283 298 301 298 300 303 304 302 299 298 297 299 298 296 295 296 297 292 286 284 278 277 280 277 279 283 281 282 281
300 167 155 228 231 199 234 227 223 222 210 218 200 217 236 245 248 243 223 226 224 232 218 218 201 231 225 227 222 220 237 241 233 242 228 198 179 161 152 143 133 107 92 107 113 103 99 81 77 39 20 339 321 335 326 306 295 295 292 289 292 295 302 299 297 297 299 299 299 299 298 294 296 297 298 294 292 292 290 278 276 279 278 281 278 279
191 80 228 184 211 239 277 265 243 246 278 267 250 225 228 226 226 242 239 235 239 244 251 244 195 215 205 223 227 223 237 248 232 229 204 165 156 144 126 109 95 103 121 115 99 87 83 95 70 61 353 301 308 318 308 290 290 290 288 292 297 298 301 296 295 294 296 297 298 295 294 292 293 295 296 297 291 280 278 286 287 281 275 266 251 251
81 247 215 94 228 199 204 228 206 219 250 247 240 235 228 225 222 235 247 247 238 239 244 257 264 228 218 237 230 222 223 241 234 176 157 140 130 124 117 113 119 121 120 123 115 98 87 80 95 344 295 289 297 296 291 288 291 289 288 291 290 294 297 298 301 301 298 299 298 296 297 296 295 295 295 293 295 297 293 284 290 288 288 288 287 288
212 235 203 195 215 233 229 228 215 212 233 239 243 236 199 206 201 215 231 238 240 231 232 236 251 270 243 236 202 207 225 217 167 122 120 128 118 107 103 119 125 122 122 107 76 55 56 51 17 311 297 289 291 289 283 288 291 292 293 288 290 292 292 296 299 298 296 300 297 298 299 299 298 296 294 293 296 296 298 303 302 298 291 285 286 293